TimeMST,TemperatureF,Dew PointF,Humidity,Sea Level PressureIn,VisibilityMPH,Wind Direction,Wind SpeedMPH,Gust SpeedMPH,PrecipitationIn,Events,Conditions,WindDirDegrees,DateUTC
12:53 AM,30.9,25.0,79,29.92,10.0,West,5.8,-,N/A,,Clear,280,2012-11-30 07:53:00
1:53 AM,28.0,24.1,85,29.91,10.0,North,5.8,-,N/A,,Clear,360,2012-11-30 08:53:00
2:53 AM,27.0,23.0,85,29.91,10.0,Calm,Calm,-,N/A,,Clear,0,2012-11-30 09:53:00
3:53 AM,26.1,23.0,88,29.89,10.0,NE,5.8,-,N/A,,Clear,40,2012-11-30 10:53:00
4:53 AM,27.0,25.0,92,29.89,10.0,South,3.5,-,N/A,,Clear,190,2012-11-30 11:53:00
5:53 AM,27.0,25.0,92,29.90,10.0,NNW,5.8,-,N/A,,Clear,340,2012-11-30 12:53:00
6:53 AM,24.1,21.9,91,29.90,10.0,Calm,Calm,-,N/A,,Clear,0,2012-11-30 13:53:00
7:53 AM,26.1,24.1,92,29.88,10.0,Calm,Calm,-,N/A,,Clear,0,2012-11-30 14:53:00
8:53 AM,27.0,24.1,89,29.89,10.0,Calm,Calm,-,N/A,,Clear,0,2012-11-30 15:53:00
9:53 AM,28.9,26.1,89,29.85,10.0,Calm,Calm,-,N/A,,Clear,0,2012-11-30 16:53:00
1:08 PM,42.8,28.4,57,29.66,25.0,Calm,Calm,-,N/A,,Overcast,0,2012-11-30 20:08:00
2:04 PM,46.4,30.2,53,29.64,25.0,North,3.5,-,N/A,,Mostly Cloudy,350,2012-11-30 21:04:00
3:01 PM,41.0,30.2,65,29.63,25.0,SE,5.8,-,N/A,,Mostly Cloudy,140,2012-11-30 22:01:00
4:01 PM,41.0,30.2,65,29.63,25.0,NE,4.6,-,N/A,,Mostly Cloudy,40,2012-11-30 23:01:00
5:04 PM,37.4,28.4,70,29.64,20.0,SSE,6.9,-,N/A,,Mostly Cloudy,160,2012-12-01 00:04:00
5:53 PM,36.0,28.9,76,29.72,10.0,South,5.8,-,N/A,,Partly Cloudy,180,2012-12-01 00:53:00
6:02 PM,39.2,30.2,70,29.64,15.0,North,3.5,-,N/A,,Scattered Clouds,10,2012-12-01 01:02:00
6:53 PM,35.6,28.4,75,29.65,10.0,Calm,Calm,-,N/A,,Clear,0,2012-12-01 01:53:00
7:53 PM,37.0,28.9,73,29.74,10.0,SE,5.8,-,N/A,,Clear,130,2012-12-01 02:53:00
8:53 PM,36.0,28.9,76,29.76,10.0,East,4.6,-,N/A,,Clear,100,2012-12-01 03:53:00
9:53 PM,37.4,30.2,75,29.69,10.0,Calm,Calm,-,N/A,,Partly Cloudy,0,2012-12-01 04:53:00
10:53 PM,37.0,30.9,79,29.75,10.0,North,9.2,-,N/A,,Scattered Clouds,10,2012-12-01 05:53:00
11:53 PM,43.0,30.0,60,29.74,10.0,Variable,4.6,-,N/A,,Scattered Clouds,0,2012-12-01 06:53:00